Location: Hopville
(44.8032°N, 123.1329°W)
Time: 23:32:59
(UTC+00:00)

Cosmos 1300 - Visible Passes

Search period start: 07 May 2021 00:00
Search period end: 17 May 2021 00:00
Orbit: 510 x 513 km, 82.5° (Epoch: 07 May)

Date Brightness Start Highest point End Pass type
(mag) Time Alt. Az. Time Alt. Az. Time Alt. Az.
07 May 5.5 10:47:21 10° NNE 10:50:01 18° ENE 10:52:40 10° ESE visible
08 May 5.6 10:31:27 10° NE 10:33:39 15° ENE 10:35:50 10° ESE visible
08 May 3.1 12:05:54 10° NNW 12:09:31 42° W 12:13:07 10° SSW visible
09 May 5.8 10:15:46 10° NE 10:17:16 12° ENE 10:18:46 10° E visible
09 May 2.8 11:49:32 10° NNW 11:53:15 53° W 11:56:58 10° S visible
10 May 2.6 11:33:11 10° NNW 11:37:00 69° W 11:40:46 10° S visible
11 May 2.6 11:16:53 10° N 11:20:43 88° W 11:24:31 10° S visible
12 May 2.8 11:00:36 10° N 11:04:25 73° E 11:08:10 10° SSE visible
13 May 3.2 10:44:20 10° N 10:48:07 57° E 10:51:24 13° SSE visible
14 May 3.7 10:28:07 10° N 10:31:48 44° ENE 10:34:42 15° SSE visible
14 May 4.7 12:05:10 10° NW 12:07:00 13° W 12:08:51 10° WSW visible
15 May 4.1 10:11:55 10° N 10:15:28 35° ENE 10:18:03 16° SE visible
15 May 4.4 11:48:22 10° NW 11:50:48 16° W 11:52:56 11° WSW visible
16 May 4.5 09:55:46 10° NNE 09:59:08 28° ENE 10:01:26 16° SE visible
16 May 4.2 11:31:44 10° NW 11:34:35 20° W 11:36:21 15° WSW visible
